| time (UTC) | temp C | wind direction | speed KPH | gust KPH | rain 1hr cm | rain 24hr cm | rain mn cm | humidity % | barometer mb |
| 20260505122119 | 16 | 117 | 8.0 | 14.5 | 0.00 | 0.28 | 0.10 | 75 | 1011.0 |
| 20260505121619 | 17 | 111 | 9.7 | 22.5 | 0.00 | 0.28 | 0.10 | 73 | 1011.0 |
| 20260505121118 | 17 | 137 | 8.0 | 16.1 | 0.00 | 0.28 | 0.10 | 72 | 1010.9 |
| 20260505120619 | 17 | 111 | 6.4 | 19.3 | 0.00 | 0.28 | 0.10 | 72 | 1010.9 |
| 20260505120119 | 17 | 142 | 8.0 | 22.5 | 0.00 | 0.28 | 0.10 | 72 | 1010.8 |
| 20260505115619 | 17 | 108 | 8.0 | 22.5 | 0.00 | 0.28 | 0.10 | 70 | 1011.1 |
| 20260505115118 | 18 | 113 | 8.0 | 17.7 | 0.00 | 0.28 | 0.10 | 71 | 1010.9 |
| 20260505114619 | 18 | 117 | 8.0 | 17.7 | 0.00 | 0.28 | 0.10 | 71 | 1010.9 |
| 20260505114119 | 18 | 124 | 8.0 | 12.9 | 0.00 | 0.28 | 0.10 | 71 | 1011.0 |
| 20260505113619 | 18 | 114 | 8.0 | 22.5 | 0.00 | 0.28 | 0.10 | 69 | 1011.1 |
| 20260505112619 | 18 | 104 | 8.0 | 12.9 | 0.00 | 0.28 | 0.10 | 72 | 1011.1 |
| 20260505112119 | 18 | 113 | 9.7 | 17.7 | 0.00 | 0.28 | 0.10 | 70 | 1011.2 |
| 20260505111618 | 18 | 117 | 6.4 | 17.7 | 0.00 | 0.28 | 0.10 | 69 | 1011.2 |
| 20260505111119 | 19 | 113 | 4.8 | 16.1 | 0.00 | 0.28 | 0.10 | 69 | 1011.0 |
| 20260505110619 | 18 | 90 | 4.8 | 9.7 | 0.00 | 0.28 | 0.10 | 72 | 1010.9 |
| 20260505101620 | 20 | 105 | 4.8 | 12.9 | 0.00 | 0.28 | 0.10 | 69 | 1010.9 |
| 20260505101119 | 19 | 85 | 4.8 | 12.9 | 0.00 | 0.28 | 0.10 | 71 | 1011.0 |
| 20260505100619 | 18 | 91 | 4.8 | 12.9 | 0.00 | 0.28 | 0.10 | 71 | 1011.0 |
| 20260505100119 | 18 | 116 | 4.8 | 12.9 | 0.00 | 0.28 | 0.10 | 72 | 1011.0 |
| 20260505095619 | 18 | 87 | 4.8 | 14.5 | 0.00 | 0.28 | 0.10 | 71 | 1011.0 |
| 20260505095119 | 19 | 77 | 3.2 | 11.3 | 0.00 | 0.28 | 0.10 | 70 | 1011.1 |
| 20260505094619 | 19 | 102 | 4.8 | 11.3 | 0.00 | 0.28 | 0.10 | 69 | 1011.1 |
| 20260505093619 | 21 | 98 | 3.2 | 6.4 | 0.00 | 0.28 | 0.10 | 64 | 1011.2 |
| 20260505093118 | 21 | 77 | 3.2 | 12.9 | 0.00 | 0.28 | 0.10 | 66 | 1011.1 |
| 20260505092620 | 21 | 78 | 3.2 | 8.0 | 0.00 | 0.28 | 0.10 | 66 | 1011.1 |
| 20260505092119 | 21 | 125 | 3.2 | 12.9 | 0.00 | 0.28 | 0.10 | 65 | 1011.1 |
| 20260505091620 | 20 | 128 | 3.2 | 9.7 | 0.00 | 0.28 | 0.10 | 66 | 1011.1 |
| 20260505091119 | 20 | 120 | 3.2 | 9.7 | 0.00 | 0.28 | 0.10 | 66 | 1011.1 |
| 20260505090619 | 20 | 105 | 3.2 | 6.4 | 0.00 | 0.28 | 0.10 | 66 | 1011.1 |
| 20260505085619 | 19 | 204 | 3.2 | 8.0 | 0.00 | 0.28 | 0.10 | 71 | 1011.1 |
| 20260505084618 | 18 | 183 | 1.6 | 3.2 | 0.00 | 0.28 | 0.10 | 71 | 1011.1 |
| 20260505083620 | 18 | 154 | 1.6 | 6.4 | 0.00 | 0.28 | 0.10 | 70 | 1011.0 |
| 20260505083119 | 19 | 162 | 1.6 | 3.2 | 0.00 | 0.28 | 0.10 | 69 | 1011.2 |
| 20260505082619 | 19 | 161 | 3.2 | 6.4 | 0.00 | 0.28 | 0.10 | 69 | 1011.2 |
| 20260505081618 | 18 | 179 | 3.2 | 6.4 | 0.00 | 0.28 | 0.10 | 70 | 1011.2 |
| 20260505080619 | 19 | 201 | 1.6 | 11.3 | 0.00 | 0.28 | 0.10 | 69 | 1011.3 |
| 20260505080119 | 19 | 174 | 1.6 | 4.8 | 0.00 | 0.28 | 0.10 | 71 | 1011.3 |
| 20260505075619 | 18 | 139 | 1.6 | 6.4 | 0.00 | 0.28 | 0.10 | 69 | 1011.4 |
| 20260505074619 | 18 | 128 | 1.6 | 6.4 | 0.00 | 0.28 | 0.10 | 71 | 1011.3 |
| 20260505074119 | 18 | 162 | 1.6 | 6.4 | 0.00 | 0.28 | 0.10 | 71 | 1011.4 |
| 20260505073618 | 18 | 157 | 1.6 | 3.2 | 0.00 | 0.28 | 0.10 | 72 | 1011.4 |
| 20260505072620 | 17 | 157 | 1.6 | 6.4 | 0.00 | 0.28 | 0.10 | 74 | 1011.3 |
| 20260505072119 | 17 | 187 | 1.6 | 4.8 | 0.00 | 0.28 | 0.10 | 75 | 1011.3 |
| 20260505071618 | 17 | 187 | 1.6 | 3.2 | 0.00 | 0.28 | 0.10 | 77 | 1011.2 |
| 20260505070618 | 16 | 242 | 1.6 | 6.4 | 0.00 | 0.28 | 0.10 | 80 | 1011.3 |
| 20260505070119 | 16 | 209 | 1.6 | 6.4 | 0.00 | 0.28 | 0.10 | 81 | 1011.3 |
| 20260505065618 | 16 | 222 | 1.6 | 4.8 | 0.00 | 0.28 | 0.10 | 82 | 1011.4 |
| 20260505065119 | 16 | 202 | 1.6 | 4.8 | 0.00 | 0.28 | 0.10 | 82 | 1011.4 |
| 20260505064619 | 16 | 230 | 3.2 | 9.7 | 0.00 | 0.28 | 0.10 | 82 | 1011.4 |
| 20260505063619 | 15 | 200 | 1.6 | 6.4 | 0.00 | 0.28 | 0.10 | 83 | 1011.4 |
| 20260505063119 | 15 | 228 | 1.6 | 4.8 | 0.00 | 0.28 | 0.10 | 84 | 1011.4 |
| 20260505062618 | 15 | 188 | 1.6 | 8.0 | 0.00 | 0.28 | 0.10 | 84 | 1011.4 |
| 20260505061119 | 14 | 203 | 3.2 | 6.4 | 0.00 | 0.28 | 0.10 | 88 | 1011.4 |
| 20260505060618 | 14 | 214 | 3.2 | 4.8 | 0.00 | 0.28 | 0.10 | 89 | 1011.4 |
| 20260505060119 | 14 | 227 | 3.2 | 6.4 | 0.00 | 0.28 | 0.10 | 89 | 1011.3 |
| 20260505055120 | 13 | 242 | 3.2 | 6.4 | 0.00 | 0.28 | 0.10 | 88 | 1011.3 |
| 20260505054618 | 13 | 223 | 3.2 | 6.4 | 0.00 | 0.28 | 0.10 | 88 | 1011.3 |
| 20260505054118 | 13 | 223 | 1.6 | 4.8 | 0.00 | 0.28 | 0.10 | 88 | 1011.2 |
| 20260505053618 | 13 | 6 | 1.6 | 3.2 | 0.00 | 0.28 | 0.10 | 88 | 1011.1 |
| 20260505053120 | 13 | 5 | 1.6 | 3.2 | 0.00 | 0.28 | 0.10 | 88 | 1011.0 |
| 20260505052619 | 13 | 6 | 0.0 | 3.2 | 0.00 | 0.28 | 0.10 | 88 | 1011.0 |
| 20260505052119 | 13 | 0 | 0.0 | 0.0 | 0.00 | 0.28 | 0.10 | 88 | 1011.0 |
| 20260505051618 | 13 | 6 | 0.0 | 3.2 | 0.00 | 0.28 | 0.10 | 88 | 1010.9 |
| 20260505051119 | 12 | 0 | 0.0 | 0.0 | 0.00 | 0.28 | 0.10 | 88 | 1010.9 |
| 20260505050619 | 12 | 0 | 0.0 | 0.0 | 0.00 | 0.28 | 0.10 | 88 | 1010.9 |
| 20260505041618 | 12 | 6 | 1.6 | 3.2 | 0.00 | 0.28 | 0.10 | 89 | 1010.7 |
| 20260505041119 | 12 | 6 | 0.0 | 3.2 | 0.00 | 0.28 | 0.10 | 88 | 1010.7 |
| 20260505040119 | 12 | 6 | 1.6 | 1.6 | 0.00 | 0.28 | 0.10 | 88 | 1010.8 |
| 20260505035618 | 12 | 5 | 1.6 | 3.2 | 0.00 | 0.28 | 0.10 | 88 | 1010.7 |
| 20260505035120 | 13 | 6 | 0.0 | 3.2 | 0.00 | 0.28 | 0.10 | 88 | 1010.7 |
| 20260505034619 | 13 | 6 | 0.0 | 1.6 | 0.00 | 0.28 | 0.10 | 88 | 1010.8 |
| 20260505034119 | 13 | 6 | 0.0 | 1.6 | 0.00 | 0.28 | 0.10 | 88 | 1010.8 |
| 20260505033618 | 13 | 5 | 1.6 | 1.6 | 0.00 | 0.28 | 0.10 | 88 | 1010.9 |
| 20260505033119 | 13 | 6 | 1.6 | 1.6 | 0.00 | 0.28 | 0.10 | 88 | 1010.9 |
| 20260505032618 | 13 | 5 | 1.6 | 3.2 | 0.00 | 0.28 | 0.10 | 87 | 1010.9 |
| 20260505032119 | 13 | 2 | 1.6 | 4.8 | 0.00 | 0.28 | 0.10 | 87 | 1010.9 |
| 20260505031619 | 13 | 266 | 1.6 | 4.8 | 0.00 | 0.28 | 0.10 | 86 | 1011.0 |
| 20260505030619 | 13 | 266 | 1.6 | 3.2 | 0.00 | 0.28 | 0.10 | 86 | 1011.0 |
| 20260505025619 | 14 | 266 | 0.0 | 3.2 | 0.00 | 0.28 | 0.10 | 85 | 1011.0 |
| 20260505025119 | 14 | 266 | 0.0 | 3.2 | 0.00 | 0.28 | 0.10 | 85 | 1011.0 |
| 20260505024119 | 13 | 266 | 1.6 | 4.8 | 0.00 | 0.28 | 0.10 | 85 | 1010.9 |
| 20260505023618 | 13 | 266 | 1.6 | 3.2 | 0.00 | 0.28 | 0.10 | 85 | 1010.8 |
| 20260505023119 | 13 | 266 | 1.6 | 4.8 | 0.00 | 0.28 | 0.10 | 85 | 1010.8 |
| 20260505022620 | 13 | 266 | 1.6 | 1.6 | 0.00 | 0.28 | 0.10 | 84 | 1010.8 |
| 20260505022119 | 14 | 266 | 3.2 | 4.8 | 0.00 | 0.28 | 0.10 | 85 | 1010.8 |
| 20260505021618 | 13 | 244 | 3.2 | 4.8 | 0.00 | 0.28 | 0.10 | 84 | 1010.8 |
| 20260505020619 | 13 | 246 | 4.8 | 6.4 | 0.00 | 0.28 | 0.10 | 85 | 1010.8 |
| 20260505020119 | 13 | 237 | 4.8 | 6.4 | 0.00 | 0.28 | 0.10 | 85 | 1010.8 |
| 20260505015618 | 13 | 227 | 4.8 | 6.4 | 0.00 | 0.28 | 0.10 | 86 | 1010.7 |
| 20260505015119 | 13 | 218 | 4.8 | 6.4 | 0.00 | 0.28 | 0.10 | 87 | 1010.7 |
| 20260505014618 | 13 | 229 | 4.8 | 6.4 | 0.00 | 0.28 | 0.10 | 87 | 1010.7 |
| 20260505014119 | 13 | 224 | 6.4 | 6.4 | 0.00 | 0.28 | 0.10 | 87 | 1010.7 |
| 20260505013618 | 13 | 217 | 4.8 | 9.7 | 0.00 | 0.28 | 0.10 | 87 | 1010.7 |
| 20260505013119 | 13 | 206 | 3.2 | 8.0 | 0.00 | 0.28 | 0.10 | 87 | 1010.7 |
| 20260505012619 | 13 | 254 | 1.6 | 3.2 | 0.00 | 0.28 | 0.10 | 87 | 1010.7 |
| 20260505012119 | 13 | 252 | 3.2 | 3.2 | 0.00 | 0.28 | 0.10 | 87 | 1010.7 |
| 20260505011618 | 13 | 225 | 4.8 | 8.0 | 0.00 | 0.28 | 0.10 | 87 | 1010.8 |
| 20260505010119 | 13 | 220 | 4.8 | 9.7 | 0.00 | 0.28 | 0.10 | 88 | 1010.8 |
| 20260505005119 | 13 | 262 | 1.6 | 1.6 | 0.00 | 0.28 | 0.10 | 89 | 1010.8 |
| 20260505004119 | 13 | 254 | 3.2 | 6.4 | 0.00 | 0.28 | 0.10 | 89 | 1010.9 |
| 20260505003618 | 13 | 276 | 3.2 | 4.8 | 0.00 | 0.28 | 0.10 | 89 | 1010.9 |
| 20260505003120 | 13 | 275 | 3.2 | 6.4 | 0.00 | 0.28 | 0.10 | 89 | 1010.9 |
| 20260505002618 | 13 | 315 | 1.6 | 4.8 | 0.00 | 0.28 | 0.10 | 90 | 1010.9 |
| 20260505002118 | 13 | 316 | 1.6 | 4.8 | 0.00 | 0.28 | 0.10 | 90 | 1011.0 |
| 20260505001619 | 13 | 278 | 1.6 | 4.8 | 0.00 | 0.28 | 0.10 | 90 | 1011.0 |
| 20260505001118 | 13 | 279 | 3.2 | 4.8 | 0.00 | 0.28 | 0.10 | 90 | 1011.0 |
| 20260505000119 | 13 | 316 | 3.2 | 8.0 | 0.00 | 0.28 | 0.10 | 90 | 1011.0 |
| 20260504235619 | 13 | 312 | 3.2 | 8.0 | 0.00 | 0.28 | 0.10 | 90 | 1011.0 |
| 20260504234120 | 13 | 348 | 3.2 | 6.4 | 0.00 | 0.28 | 0.10 | 90 | 1010.9 |
| 20260504233618 | 13 | 326 | 1.6 | 8.0 | 0.00 | 0.28 | 0.10 | 90 | 1010.9 |
| 20260504233118 | 13 | 316 | 1.6 | 3.2 | 0.00 | 0.28 | 0.10 | 90 | 1010.8 |
| 20260504232618 | 13 | 316 | 1.6 | 4.8 | 0.00 | 0.28 | 0.10 | 90 | 1010.6 |
| 20260504231119 | 13 | 316 | 4.8 | 8.0 | 0.05 | 0.28 | 0.10 | 90 | 1010.6 |
| 20260504230619 | 13 | 319 | 4.8 | 8.0 | 0.08 | 0.28 | 0.10 | 90 | 1010.5 |
| 20260504225618 | 13 | 296 | 3.2 | 8.0 | 0.13 | 0.28 | 0.10 | 89 | 1010.5 |
| 20260504225119 | 13 | 302 | 3.2 | 8.0 | 0.13 | 0.28 | 0.10 | 89 | 1010.4 |
| 20260504224618 | 13 | 308 | 3.2 | 8.0 | 0.13 | 0.28 | 0.10 | 89 | 1010.3 |
| 20260504224118 | 13 | 306 | 3.2 | 6.4 | 0.15 | 0.28 | 0.10 | 89 | 1010.3 |
| 20260504223619 | 13 | 318 | 3.2 | 4.8 | 0.15 | 0.28 | 0.10 | 89 | 1010.3 |
| 20260504223119 | 14 | 9 | 3.2 | 4.8 | 0.15 | 0.28 | 0.10 | 88 | 1010.4 |
| 20260504222618 | 14 | 5 | 3.2 | 4.8 | 0.13 | 0.25 | 0.08 | 88 | 1010.3 |
| 20260504222119 | 14 | 345 | 4.8 | 9.7 | 0.13 | 0.25 | 0.08 | 87 | 1010.4 |
| 20260504220619 | 15 | 286 | 4.8 | 16.1 | 0.05 | 0.20 | 0.03 | 88 | 1010.9 |
| 20260504220122 | 15 | 305 | 3.2 | 9.7 | 0.05 | 0.18 | 0.00 | 89 | 1011.0 |
| 20260504215618 | 16 | 283 | 1.6 | 4.8 | 0.03 | 0.15 | 0.15 | 89 | 1010.9 |
| 20260504214619 | 16 | 301 | 1.6 | 4.8 | 0.03 | 0.15 | 0.15 | 90 | 1010.9 |
| 20260504214118 | 16 | 6 | 1.6 | 4.8 | 0.00 | 0.15 | 0.15 | 90 | 1010.9 |
| 20260504213618 | 16 | 11 | 1.6 | 4.8 | 0.00 | 0.15 | 0.15 | 90 | 1010.8 |
| 20260504213119 | 16 | 264 | 1.6 | 4.8 | 0.00 | 0.15 | 0.15 | 90 | 1010.8 |
| 20260504212619 | 16 | 263 | 1.6 | 4.8 | 0.00 | 0.15 | 0.15 | 90 | 1010.9 |
| 20260504212118 | 16 | 264 | 1.6 | 4.8 | 0.00 | 0.15 | 0.15 | 90 | 1011.1 |
| 20260504211619 | 16 | 264 | 1.6 | 6.4 | 0.00 | 0.15 | 0.15 | 90 | 1011.1 |
| 20260504210120 | 16 | 263 | 0.0 | 3.2 | 0.00 | 0.15 | 0.15 | 90 | 1010.9 |
| 20260504205619 | 16 | 264 | 0.0 | 1.6 | 0.00 | 0.15 | 0.15 | 90 | 1010.9 |
| 20260504205119 | 16 | 264 | 1.6 | 1.6 | 0.00 | 0.15 | 0.15 | 90 | 1010.8 |
| 20260504204119 | 16 | 264 | 0.0 | 3.2 | 0.00 | 0.15 | 0.15 | 90 | 1010.8 |
| 20260504203618 | 16 | 264 | 0.0 | 3.2 | 0.00 | 0.15 | 0.15 | 90 | 1010.7 |
| 20260504203118 | 16 | 264 | 0.0 | 1.6 | 0.00 | 0.15 | 0.15 | 90 | 1010.7 |
| 20260504202119 | 16 | 0 | 0.0 | 0.0 | 0.00 | 0.15 | 0.15 | 90 | 1010.5 |
| 20260504201618 | 16 | 264 | 1.6 | 4.8 | 0.00 | 0.15 | 0.15 | 90 | 1010.5 |
| 20260504201120 | 17 | 264 | 0.0 | 1.6 | 0.00 | 0.15 | 0.15 | 90 | 1010.5 |
| 20260504200619 | 17 | 264 | 0.0 | 1.6 | 0.00 | 0.15 | 0.15 | 90 | 1010.5 |
| 20260504200119 | 17 | 263 | 1.6 | 1.6 | 0.00 | 0.15 | 0.15 | 90 | 1010.5 |
| 20260504195618 | 16 | 264 | 1.6 | 3.2 | 0.00 | 0.15 | 0.15 | 90 | 1010.4 |
| 20260504195119 | 16 | 263 | 1.6 | 3.2 | 0.00 | 0.15 | 0.15 | 90 | 1010.4 |
| 20260504194618 | 16 | 263 | 1.6 | 3.2 | 0.00 | 0.15 | 0.15 | 89 | 1010.3 |
| 20260504193618 | 17 | 264 | 0.0 | 1.6 | 0.00 | 0.15 | 0.15 | 89 | 1010.1 |
| 20260504193119 | 17 | 264 | 0.0 | 1.6 | 0.00 | 0.15 | 0.15 | 90 | 1010.0 |
| 20260504192119 | 17 | 201 | 0.0 | 1.6 | 0.00 | 0.15 | 0.15 | 89 | 1009.8 |
| 20260504191619 | 17 | 201 | 0.0 | 1.6 | 0.00 | 0.15 | 0.15 | 89 | 1009.6 |
| 20260504191118 | 17 | 202 | 1.6 | 3.2 | 0.00 | 0.15 | 0.15 | 89 | 1009.4 |
| 20260504190618 | 17 | 202 | 1.6 | 4.8 | 0.00 | 0.15 | 0.15 | 89 | 1009.4 |
| 20260504185618 | 17 | 190 | 3.2 | 4.8 | 0.00 | 0.15 | 0.15 | 89 | 1009.3 |
| 20260504185118 | 17 | 162 | 1.6 | 4.8 | 0.00 | 0.15 | 0.15 | 89 | 1009.2 |
| 20260504184619 | 17 | 165 | 1.6 | 6.4 | 0.00 | 0.15 | 0.15 | 89 | 1009.2 |
| 20260504183618 | 17 | 188 | 1.6 | 4.8 | 0.00 | 0.15 | 0.15 | 89 | 1009.1 |
| 20260504183118 | 17 | 149 | 1.6 | 4.8 | 0.00 | 0.15 | 0.15 | 89 | 1009.1 |
| 20260504182618 | 17 | 198 | 1.6 | 4.8 | 0.00 | 0.15 | 0.15 | 89 | 1009.2 |
| 20260504182118 | 17 | 223 | 3.2 | 6.4 | 0.00 | 0.15 | 0.15 | 89 | 1009.2 |
| 20260504181619 | 17 | 183 | 3.2 | 6.4 | 0.00 | 0.15 | 0.15 | 89 | 1009.3 |
| 20260504181118 | 17 | 163 | 3.2 | 6.4 | 0.00 | 0.15 | 0.15 | 89 | 1009.2 |
| 20260504180618 | 17 | 168 | 3.2 | 9.7 | 0.00 | 0.15 | 0.15 | 89 | 1009.2 |
| 20260504180118 | 17 | 184 | 1.6 | 8.0 | 0.00 | 0.15 | 0.15 | 89 | 1009.3 |
| 20260504175618 | 17 | 192 | 1.6 | 4.8 | 0.00 | 0.15 | 0.15 | 89 | 1009.2 |
| 20260504175118 | 17 | 191 | 1.6 | 4.8 | 0.00 | 0.15 | 0.15 | 89 | 1009.2 |
| 20260504174618 | 18 | 191 | 0.0 | 1.6 | 0.00 | 0.15 | 0.15 | 89 | 1009.3 |
| 20260504174119 | 18 | 192 | 0.0 | 6.4 | 0.00 | 0.15 | 0.15 | 89 | 1009.2 |
| 20260504173618 | 18 | 303 | 1.6 | 3.2 | 0.03 | 0.15 | 0.15 | 89 | 1009.3 |
| 20260504173119 | 18 | 275 | 1.6 | 6.4 | 0.03 | 0.15 | 0.15 | 89 | 1009.3 |
| 20260504172618 | 18 | 289 | 1.6 | 3.2 | 0.03 | 0.15 | 0.15 | 89 | 1009.3 |
| 20260504172119 | 18 | 67 | 1.6 | 3.2 | 0.03 | 0.15 | 0.15 | 89 | 1009.3 |
| 20260504171118 | 18 | 159 | 1.6 | 6.4 | 0.05 | 0.15 | 0.15 | 89 | 1009.3 |
| 20260504170618 | 18 | 165 | 1.6 | 4.8 | 0.10 | 0.15 | 0.15 | 89 | 1009.4 |
| 20260504170119 | 18 | 157 | 1.6 | 4.8 | 0.15 | 0.15 | 0.15 | 89 | 1009.5 |
| 20260504160120 | 18 | 179 | 3.2 | 6.4 | 0.00 | 0.00 | 0.00 | 79 | 1009.9 |
| 20260504151119 | 20 | 100 | 3.2 | 6.4 | 0.00 | 0.00 | 0.00 | 74 | 1009.7 |
| 20260504150618 | 20 | 147 | 4.8 | 12.9 | 0.00 | 0.00 | 0.00 | 74 | 1009.8 |
| 20260504141119 | 21 | 173 | 4.8 | 12.9 | 0.00 | 0.00 | 0.00 | 69 | 1009.5 |
| 20260504130618 | 21 | 66 | 3.2 | 8.0 | 0.00 | 0.00 | 0.00 | 70 | 1009.9 |
| 20260504130119 | 21 | 109 | 3.2 | 11.3 | 0.00 | 0.00 | 0.00 | 69 | 1010.0 |